Change the Weather History Date:

Sunday, July 29, 2012

  Actual Average Record
Temperature  
Mean Temperature 73 °F -  
Max Temperature 82 °F 80 °F 97 °F (1933)
Min Temperature 64 °F 52 °F 41 °F (1971)
Cooling Degree Days 8    
Growing Degree Days 23 (Base 50)    
Moisture  
Dew Point 63 °F    
Average Humidity 74    
Maximum Humidity 94    
Minimum Humidity 54    
Precipitation  
Precipitation 0.00 in - - ()
Sea Level Pressure  
Sea Level Pressure 30.00 in    
Wind  
Wind Speed 3 mph (SSW)    
Max Wind Speed 10 mph    
Max Gust Speed -    
Visibility 10 miles    
Events Thunderstorm    
Averages and records for this station are not official NWS values.
T = Trace of Precipitation, MM = Missing Value Source: NWS Daily Summary

Daily Weather History Graph

Daily Weather History Graph

Search for Another Location

Airport or City:

Trip Planner

Search our weather history database for the weather conditions in past years. The results will help you decide how hot, cold, wet, or windy it might be!

Date:

Astronomy

Jul. 29, 2012 Rise Set
Actual Time 5:52 AM CDT 8:45 PM CDT
Civil Twilight 5:18 AM CDT 9:20 PM CDT
Nautical Twilight 4:33 AM CDT 10:04 PM CDT
Astronomical Twilight 3:40 AM CDT 10:56 PM CDT
Moon 5:55 PM CDT (7/29) 2:04 AM CDT (7/29)
Length of Visible Light 16h 01m
Length of Day
14h 52m
Waxing Gibbous, 85% of the Moon is Illuminated
Jul 29
Waxing Gibbous
Aug 1
Full
Aug 9
Last Quarter
Aug 17
New
Aug 24
First Quarter

Hourly Weather History & Observations

Time (CDT) Temp. Heat Index Dew Point Humidity Pressure Visibility Wind Dir Wind Speed Gust Speed Precip Events Conditions
12:17 AM 66.2 °F - 62.6 °F 88% 30.05 in 10.0 mi Calm Calm - N/A   Overcast
12:37 AM 64.4 °F - 62.6 °F 94% 30.05 in 10.0 mi Calm Calm - N/A   Mostly Cloudy
12:57 AM 64.4 °F - 62.6 °F 94% 30.04 in 10.0 mi Calm Calm - N/A   Scattered Clouds
1:17 AM 68.0 °F - 62.6 °F 83% 30.04 in 10.0 mi Calm Calm - N/A   Clear
1:37 AM 64.4 °F - 60.8 °F 88% 30.04 in 10.0 mi Calm Calm - N/A   Scattered Clouds
1:57 AM 64.4 °F - 62.6 °F 94% 30.03 in 10.0 mi Calm Calm - N/A   Mostly Cloudy
2:17 AM 64.4 °F - 62.6 °F 94% 30.02 in 10.0 mi Calm Calm - N/A Thunderstorm Overcast
2:37 AM 64.4 °F - 62.6 °F 94% 30.02 in 10.0 mi South 3.5 mph - N/A   Mostly Cloudy
2:57 AM 64.4 °F - 60.8 °F 88% 30.03 in 10.0 mi South 5.8 mph - N/A   Mostly Cloudy
3:17 AM 64.4 °F - 60.8 °F 88% 30.02 in 10.0 mi Calm Calm - N/A   Mostly Cloudy
3:37 AM 64.4 °F - 62.6 °F 94% 30.02 in 10.0 mi Calm Calm - N/A   Scattered Clouds
3:57 AM 64.4 °F - 62.6 °F 94% 30.02 in 10.0 mi Calm Calm - N/A   Scattered Clouds
4:17 AM 64.4 °F - 62.6 °F 94% 30.01 in 10.0 mi Calm Calm - N/A   Clear
4:57 AM 64.4 °F - 62.6 °F 94% 30.03 in 10.0 mi Calm Calm - N/A   Mostly Cloudy
5:17 AM 64.4 °F - 62.6 °F 94% 30.03 in 10.0 mi Calm Calm - N/A   Scattered Clouds
5:37 AM 64.4 °F - 62.6 °F 94% 30.04 in 10.0 mi Calm Calm - N/A   Scattered Clouds
5:57 AM 64.4 °F - 62.6 °F 94% 30.04 in 10.0 mi Calm Calm - N/A   Mostly Cloudy
6:17 AM 64.4 °F - 62.6 °F 94% 30.05 in 10.0 mi Calm Calm - N/A   Mostly Cloudy
6:37 AM 64.4 °F - 62.6 °F 94% 30.04 in 10.0 mi Calm Calm - N/A   Scattered Clouds
6:57 AM 66.2 °F - 64.4 °F 94% 30.05 in 10.0 mi Calm Calm - N/A   Mostly Cloudy
7:17 AM 68.0 °F - 64.4 °F 88% 30.05 in 10.0 mi SW 4.6 mph - N/A   Overcast
7:37 AM 68.0 °F - 64.4 °F 88% 30.05 in 10.0 mi SW 3.5 mph - N/A   Overcast
7:57 AM 68.0 °F - 64.4 °F 88% 30.05 in 10.0 mi SW 3.5 mph - N/A   Overcast
8:17 AM 68.0 °F - 64.4 °F 88% 30.05 in 10.0 mi SSW 9.2 mph - N/A   Overcast
8:37 AM 69.8 °F - 64.4 °F 83% 30.04 in 10.0 mi South 8.1 mph - N/A   Mostly Cloudy
8:57 AM 69.8 °F - 64.4 °F 83% 30.04 in 10.0 mi SSW 10.4 mph - N/A   Scattered Clouds
9:17 AM 69.8 °F - 64.4 °F 83% 30.05 in 10.0 mi SW 6.9 mph - N/A   Mostly Cloudy
9:57 AM 73.4 °F - 62.6 °F 69% 30.05 in 10.0 mi SSW 6.9 mph - N/A   Overcast
10:17 AM 73.4 °F - 62.6 °F 69% 30.06 in 10.0 mi South 8.1 mph - N/A   Overcast
10:37 AM 73.4 °F - 62.6 °F 69% 30.05 in 10.0 mi South 6.9 mph - N/A   Scattered Clouds
10:57 AM 73.4 °F - 62.6 °F 69% 30.05 in 10.0 mi SW 6.9 mph - N/A   Clear
11:17 AM 75.2 °F - 64.4 °F 69% 30.05 in 10.0 mi South 3.5 mph - N/A   Clear
11:37 AM 75.2 °F - 62.6 °F 65% 30.04 in 10.0 mi South 6.9 mph - N/A   Clear
12:17 PM 77.0 °F - 64.4 °F 65% 30.03 in 10.0 mi South 6.9 mph - N/A   Clear
12:37 PM 77.0 °F - 62.6 °F 61% 30.03 in 10.0 mi SSW 6.9 mph - N/A   Scattered Clouds
12:57 PM 78.8 °F - 64.4 °F 61% 30.03 in 10.0 mi SW 8.1 mph - N/A   Scattered Clouds
1:17 PM 78.8 °F - 64.4 °F 61% 30.02 in 10.0 mi SSW 6.9 mph - N/A   Scattered Clouds
1:37 PM 78.8 °F - 62.6 °F 57% 30.01 in 10.0 mi South 6.9 mph - N/A   Scattered Clouds
1:57 PM 78.8 °F - 62.6 °F 57% 30.00 in 10.0 mi South 9.2 mph - N/A   Scattered Clouds
2:17 PM 80.6 °F 81.8 °F 62.6 °F 54% 30.00 in 10.0 mi SSW 4.6 mph - N/A   Mostly Cloudy
2:37 PM 78.8 °F - 62.6 °F 57% 30.00 in 10.0 mi Calm Calm - N/A   Mostly Cloudy
2:57 PM 80.6 °F 81.8 °F 62.6 °F 54% 30.00 in 10.0 mi SW 4.6 mph - N/A   Scattered Clouds
3:17 PM 80.6 °F 81.8 °F 62.6 °F 54% 29.99 in 10.0 mi SSE 4.6 mph - N/A   Scattered Clouds
3:37 PM 80.6 °F 81.8 °F 62.6 °F 54% 29.98 in 10.0 mi Calm Calm - N/A   Scattered Clouds
3:57 PM 80.6 °F 81.8 °F 62.6 °F 54% 29.98 in 10.0 mi SSW 5.8 mph - N/A   Scattered Clouds
4:17 PM 82.4 °F 83.9 °F 64.4 °F 54% 29.97 in 10.0 mi SW 6.9 mph - N/A   Scattered Clouds
4:37 PM 82.4 °F 83.9 °F 64.4 °F 54% 29.97 in 10.0 mi SSW 8.1 mph - N/A   Scattered Clouds
4:57 PM 82.4 °F 83.9 °F 64.4 °F 54% 29.97 in 10.0 mi SW 5.8 mph - N/A   Scattered Clouds
5:17 PM 80.6 °F 81.8 °F 62.6 °F 54% 29.97 in 10.0 mi SW 5.8 mph - N/A   Scattered Clouds
5:37 PM 78.8 °F - 62.6 °F 57% 29.97 in 10.0 mi SW 6.9 mph - N/A   Scattered Clouds
5:57 PM 78.8 °F - 62.6 °F 57% 29.97 in 10.0 mi SW 5.8 mph - N/A   Scattered Clouds
6:17 PM 78.8 °F - 62.6 °F 57% 29.96 in 10.0 mi SSW 8.1 mph - N/A   Clear
6:37 PM 78.8 °F - 62.6 °F 57% 29.95 in 10.0 mi SW 6.9 mph - N/A   Clear
6:57 PM 78.8 °F - 62.6 °F 57% 29.94 in 10.0 mi WSW 6.9 mph - N/A   Scattered Clouds
7:17 PM 78.8 °F - 62.6 °F 57% 29.94 in 10.0 mi WSW 6.9 mph - N/A   Clear
7:37 PM 78.8 °F - 62.6 °F 57% 29.94 in 10.0 mi SSW 6.9 mph - N/A   Clear
7:57 PM 77.0 °F - 62.6 °F 61% 29.94 in 10.0 mi SW 5.8 mph - N/A   Clear
8:17 PM 77.0 °F - 62.6 °F 61% 29.94 in 10.0 mi South 4.6 mph - N/A   Clear
8:37 PM 75.2 °F - 62.6 °F 65% 29.94 in 10.0 mi South 4.6 mph - N/A   Clear
8:57 PM 73.4 °F - 62.6 °F 69% 29.94 in 10.0 mi SSW 4.6 mph - N/A   Clear
9:17 PM 73.4 °F - 62.6 °F 69% 29.96 in 10.0 mi South 3.5 mph - N/A   Clear
9:37 PM 73.4 °F - 64.4 °F 73% 29.96 in 10.0 mi SSW 3.5 mph - N/A   Clear
9:57 PM 71.6 °F - 64.4 °F 78% 29.97 in 10.0 mi SSW 5.8 mph - N/A   Clear
10:17 PM 69.8 °F - 62.6 °F 78% 29.97 in 10.0 mi SSW 3.5 mph - N/A   Clear
10:37 PM 69.8 °F - 62.6 °F 78% 29.97 in 10.0 mi SSW 4.6 mph - N/A   Clear
10:57 PM 69.8 °F - 62.6 °F 78% 29.97 in 10.0 mi SSW 4.6 mph - N/A   Clear
11:17 PM 69.8 °F - 64.4 °F 83% 29.95 in 10.0 mi South 5.8 mph - N/A   Clear
11:37 PM 69.8 °F - 64.4 °F 83% 29.95 in 10.0 mi South 3.5 mph - N/A   Clear
11:57 PM 69.8 °F - 64.4 °F 83% 29.95 in 10.0 mi South 3.5 mph - N/A   Clear